^^
Your Local Weather - Clay, NY Station Historical Data
Daily Summary for January 3, 2017 Units:  Metric    English   Both
« Previous Day
Next Day »
Daily Weekly Monthly Yearly Custom
  High: Low: Average:
Temperature: 2.4 °C 1.1 °C 1.8 °C
Dew Point: 0.9 °C -3 °C -0.5 °C
Humidity: 94% 74% 85%
Wind Speed: 11.3km/h 0km/h 5.5km/h
Wind Gust: 17.7km/h - -
Wind- - East
Pressure: 1021.2 hPa 995.8 hPa -
Precipitation: 18.8 mm    
Historical Graphs
 
 
Tabular Data for January 3, 2017
Time Temperature Dew Point Pressure Wind Wind Speed Wind Gust Humidity Rainfall Rate (Hourly) solar
00:02 1.2 °C -2.9 °C 1021.2 hPa ENE 4.8 km/h 4.8 km/h 74% 0 mm 0 W/m2
00:08 1.2 °C -2.9 °C 1021.2 hPa ENE 4.8 km/h 6.4 km/h 74% 0 mm 0 W/m2
00:14 1.2 °C -2.7 °C 1021.2 hPa ENE 4.8 km/h 4.8 km/h 75% 0 mm 0 W/m2
00:19 1.3 °C -2.8 °C 1021.2 hPa ESE 4.8 km/h 4.8 km/h 74% 0 mm 0 W/m2
00:26 1.3 °C -2.8 °C 1020.9 hPa ENE 4.8 km/h 4.8 km/h 74% 0 mm 0 W/m2
00:32 1.2 °C -2.9 °C 1021.2 hPa ENE 3.2 km/h 3.2 km/h 74% 0 mm 0 W/m2
00:38 1.2 °C -2.9 °C 1020.9 hPa ENE 4.8 km/h 11.3 km/h 74% 0 mm 0 W/m2
00:44 1.2 °C -2.8 °C 1020.9 hPa ENE 4.8 km/h 4.8 km/h 75% 0 mm 0 W/m2
00:50 1.2 °C -2.9 °C 1020.9 hPa NE 4.8 km/h 4.8 km/h 74% 0 mm 0 W/m2
00:56 1.2 °C -2.8 °C 1020.9 hPa East 4.8 km/h 4.8 km/h 75% 0 mm 0 W/m2
01:02 1.2 °C -2.9 °C 1020.9 hPa East 4.8 km/h 9.7 km/h 74% 0 mm 0 W/m2
01:08 1.1 °C -2.8 °C 1020.9 hPa NE 4.8 km/h 9.7 km/h 75% 0 mm 0 W/m2
01:14 1.2 °C -2.9 °C 1020.9 hPa East 4.8 km/h 6.4 km/h 74% 0 mm 0 W/m2
01:20 1.1 °C -2.8 °C 1020.5 hPa NNE 4.8 km/h 8 km/h 75% 0 mm 0 W/m2
01:26 1.2 °C -2.9 °C 1020.5 hPa East 6.4 km/h 8 km/h 74% 0 mm 0 W/m2
01:32 1.2 °C -2.9 °C 1020.5 hPa East 6.4 km/h 8 km/h 74% 0 mm 0 W/m2
01:38 1.2 °C -2.9 °C 1020.5 hPa ENE 4.8 km/h 8 km/h 74% 0 mm 0 W/m2
01:44 1.2 °C -2.9 °C 1020.9 hPa NE 6.4 km/h 14.5 km/h 74% 0 mm 0 W/m2
01:50 1.2 °C -2.9 °C 1020.5 hPa ENE 4.8 km/h 11.3 km/h 74% 0 mm 0 W/m2
01:56 1.2 °C -2.9 °C 1020.5 hPa ENE 6.4 km/h 11.3 km/h 74% 0 mm 0 W/m2
02:02 1.2 °C -2.9 °C 1020.5 hPa NE 6.4 km/h 8 km/h 74% 0 mm 0 W/m2
02:08 1.1 °C -3 °C 1020.5 hPa ENE 6.4 km/h 11.3 km/h 74% 0 mm 0 W/m2
02:14 1.1 °C -3 °C 1020.5 hPa East 4.8 km/h 8 km/h 74% 0 mm 0 W/m2
02:20 1.2 °C -2.9 °C 1020.5 hPa ESE 4.8 km/h 4.8 km/h 74% 0 mm 0 W/m2
02:26 1.2 °C -2.9 °C 1020.5 hPa SE 6.4 km/h 12.9 km/h 74% 0 mm 0 W/m2
02:32 1.2 °C -2.9 °C 1020.2 hPa ENE 4.8 km/h 8 km/h 74% 0 mm 0 W/m2
02:38 1.2 °C -2.9 °C 1019.9 hPa East 6.4 km/h 11.3 km/h 74% 0 mm 0 W/m2
02:44 1.2 °C -2.9 °C 1019.9 hPa East 6.4 km/h 8 km/h 74% 0 mm 0 W/m2
02:50 1.3 °C -2.8 °C 1019.9 hPa ENE 6.4 km/h 11.3 km/h 74% 0 mm 0 W/m2
02:55 1.3 °C -2.8 °C 1019.5 hPa ENE 6.4 km/h 11.3 km/h 74% 0 mm 0 W/m2
03:02 1.3 °C -2.8 °C 1019.9 hPa ENE 6.4 km/h 8 km/h 74% 0 mm 0 W/m2
03:08 1.3 °C -2.8 °C 1019.5 hPa ENE 4.8 km/h 14.5 km/h 74% 0 mm 0 W/m2
03:14 1.3 °C -2.7 °C 1019.2 hPa ENE 6.4 km/h 6.4 km/h 75% 0 mm 0 W/m2
03:19 1.3 °C -2.8 °C 1019.2 hPa ESE 6.4 km/h 6.4 km/h 74% 0 mm 0 W/m2
03:26 1.3 °C -2.7 °C 1019.2 hPa East 4.8 km/h 8 km/h 75% 0 mm 0 W/m2
03:32 1.3 °C -2.7 °C 1019.2 hPa ENE 4.8 km/h 6.4 km/h 75% 0 mm 0 W/m2
03:38 1.3 °C -2.7 °C 1019.2 hPa ENE 6.4 km/h 8 km/h 75% 0 mm 0 W/m2
03:44 1.3 °C -2.7 °C 1018.8 hPa ESE 4.8 km/h 6.4 km/h 75% 0 mm 0 W/m2
03:50 1.3 °C -2.7 °C 1018.8 hPa East 4.8 km/h 4.8 km/h 75% 0 mm 0 W/m2
03:56 1.3 °C -2.5 °C 1018.8 hPa ENE 4.8 km/h 8 km/h 76% 0 mm 0 W/m2
04:02 1.3 °C -2.5 °C 1018.5 hPa ESE 4.8 km/h 4.8 km/h 76% 0 mm 0 W/m2
04:08 1.3 °C -2.5 °C 1018.2 hPa ENE 4.8 km/h 4.8 km/h 76% 0 mm 0 W/m2
04:13 1.3 °C -2.4 °C 1018.2 hPa East 6.4 km/h 6.4 km/h 76% 0 mm 0 W/m2
04:20 1.3 °C -2.4 °C 1018.2 hPa East 6.4 km/h 6.4 km/h 76% 0 mm 0 W/m2
04:26 1.4 °C -2.4 °C 1017.8 hPa NE 4.8 km/h 8 km/h 76% 0 mm 0 W/m2
04:32 1.4 °C -2.4 °C 1017.8 hPa East 6.4 km/h 8 km/h 76% 0 mm 0 W/m2
04:38 1.4 °C -2.2 °C 1017.2 hPa East 4.8 km/h 8 km/h 77% 0 mm 0 W/m2
04:44 1.4 °C -2.2 °C 1017.2 hPa East 6.4 km/h 16.1 km/h 77% 0 mm 0 W/m2
04:50 1.5 °C -2.3 °C 1017.2 hPa ENE 6.4 km/h 11.3 km/h 76% 0 mm 0 W/m2
04:56 1.6 °C -2.2 °C 1017.2 hPa South 6.4 km/h 11.3 km/h 76% 0 mm 0 W/m2
05:02 1.6 °C -2 °C 1017.2 hPa ESE 8 km/h 8 km/h 77% 0 mm 0 W/m2
05:08 1.6 °C -2 °C 1017.2 hPa East 6.4 km/h 8 km/h 77% 0 mm 0 W/m2
05:14 1.6 °C -2 °C 1016.8 hPa ESE 4.8 km/h 6.4 km/h 77% 0 mm 0 W/m2
05:20 1.6 °C -2 °C 1016.8 hPa SSE 6.4 km/h 6.4 km/h 77% 0 mm 0 W/m2
05:26 1.7 °C -1.8 °C 1016.5 hPa ENE 6.4 km/h 6.4 km/h 78% 0 mm 0 W/m2
05:32 1.7 °C -1.8 °C 1016.5 hPa ESE 8 km/h 17.7 km/h 78% 0 mm 0 W/m2
05:38 1.7 °C -1.8 °C 1016.5 hPa East 8 km/h 17.7 km/h 78% 0 mm 0 W/m2
05:44 1.7 °C -1.8 °C 1016.5 hPa ENE 6.4 km/h 6.4 km/h 78% 0 mm 0 W/m2
05:49 1.7 °C -1.6 °C 1016.1 hPa ESE 6.4 km/h 11.3 km/h 79% 0 mm 0 W/m2
05:56 1.7 °C -1.6 °C 1016.1 hPa SE 6.4 km/h 11.3 km/h 79% 0 mm 0 W/m2
06:02 1.7 °C -1.6 °C 1015.8 hPa ESE 6.4 km/h 8 km/h 79% 0 mm 0 W/m2
06:08 1.7 °C -1.4 °C 1015.5 hPa East 6.4 km/h 11.3 km/h 80% 0 mm 0 W/m2
06:14 1.7 °C -1.4 °C 1015.8 hPa ENE 6.4 km/h 12.9 km/h 80% 0 mm 0 W/m2
06:20 1.7 °C -1.3 °C 1015.8 hPa East 6.4 km/h 6.4 km/h 80% 0 mm 0 W/m2
06:26 1.7 °C -1.4 °C 1015.8 hPa ESE 6.4 km/h 11.3 km/h 80% 0 mm 0 W/m2
06:32 1.7 °C -1.3 °C 1015.5 hPa ESE 6.4 km/h 6.4 km/h 80% 0 mm 0 W/m2
06:38 1.7 °C -1.3 °C 1015.5 hPa SE 6.4 km/h 11.3 km/h 80% 0 mm 0 W/m2
06:44 1.8 °C -1.3 °C 1015.5 hPa East 6.4 km/h 6.4 km/h 80% 0 mm 0 W/m2
06:49 1.8 °C -1.1 °C 1015.1 hPa ESE 6.4 km/h 12.9 km/h 81% 0 mm 0 W/m2
06:56 1.8 °C -1.1 °C 1015.1 hPa ENE 6.4 km/h 12.9 km/h 81% 0 mm 0 W/m2
07:02 1.8 °C -1.1 °C 1015.1 hPa ENE 6.4 km/h 9.7 km/h 81% 0 mm 0 W/m2
07:08 1.8 °C -1.1 °C 1014.8 hPa SE 6.4 km/h 11.3 km/h 81% 0 mm 0 W/m2
07:13 1.8 °C -1.1 °C 1014.4 hPa ENE 6.4 km/h 14.5 km/h 81% 0 mm 0 W/m2
07:20 1.7 °C -1.2 °C 1014.4 hPa SE 6.4 km/h 8 km/h 81% 0 mm 0 W/m2
07:26 1.8 °C -1.1 °C 1014.4 hPa ENE 6.4 km/h 11.3 km/h 81% 0 mm 0 W/m2
07:32 1.8 °C -1.1 °C 1014.4 hPa East 6.4 km/h 9.7 km/h 81% 0 mm 0 W/m2
07:38 1.8 °C -1.1 °C 1014.1 hPa ENE 6.4 km/h 14.5 km/h 81% 0 mm 0 W/m2
07:44 1.8 °C -1.1 °C 1014.1 hPa ENE 6.4 km/h 11.3 km/h 81% 0 mm 0 W/m2
07:49 1.8 °C -1.1 °C 1014.1 hPa East 6.4 km/h 6.4 km/h 81% 0 mm 5 W/m2
07:56 1.8 °C -1.1 °C 1014.1 hPa ENE 6.4 km/h 6.4 km/h 81% 0 mm 7 W/m2
08:02 1.8 °C -0.9 °C 1013.8 hPa ENE 4.8 km/h 11.3 km/h 82% 0 mm 12 W/m2
08:08 1.8 °C -0.9 °C 1013.8 hPa NNE 4.8 km/h 11.3 km/h 82% 0 mm 18 W/m2
08:14 1.8 °C -0.9 °C 1013.8 hPa ENE 6.4 km/h 12.9 km/h 82% 0 mm 21 W/m2
08:20 1.8 °C -0.9 °C 1013.4 hPa ENE 6.4 km/h 6.4 km/h 82% 0 mm 23 W/m2
08:26 1.8 °C -0.9 °C 1013.4 hPa East 6.4 km/h 6.4 km/h 82% 0 mm 28 W/m2
08:32 1.8 °C -0.9 °C 1013.4 hPa East 6.4 km/h 12.9 km/h 82% 0 mm 35 W/m2
08:38 1.9 °C -0.8 °C 1013.1 hPa ENE 8 km/h 12.9 km/h 82% 0 mm 42 W/m2
08:44 1.9 °C -0.8 °C 1012.8 hPa East 6.4 km/h 11.3 km/h 82% 0 mm 46 W/m2
08:50 2 °C -0.8 °C 1012.8 hPa ENE 8 km/h 8 km/h 82% 0 mm 46 W/m2
08:56 2 °C -0.8 °C 1013.1 hPa ENE 6.4 km/h 12.9 km/h 82% 0 mm 40 W/m2
09:02 2 °C -0.8 °C 1013.1 hPa ENE 6.4 km/h 16.1 km/h 82% 0 mm 37 W/m2
09:08 2.1 °C -0.7 °C 1013.1 hPa ENE 6.4 km/h 16.1 km/h 82% 0 mm 32 W/m2
09:14 2.1 °C -0.7 °C 1012.8 hPa ENE 8 km/h 11.3 km/h 82% 0 mm 33 W/m2
09:19 2.1 °C -0.7 °C 1012.8 hPa NE 8 km/h 8 km/h 82% 0 mm 42 W/m2
09:26 2.1 °C -0.7 °C 1012.8 hPa NE 8 km/h 11.3 km/h 82% 0 mm 42 W/m2
09:32 2.2 °C -0.6 °C 1012.8 hPa East 6.4 km/h 6.4 km/h 82% 0 mm 42 W/m2
09:38 2.2 °C -0.6 °C 1012.8 hPa ENE 8 km/h 11.3 km/h 82% 0 mm 47 W/m2
09:44 2.2 °C -0.6 °C 1012.4 hPa East 6.4 km/h 8 km/h 82% 0 mm 46 W/m2
09:50 2.1 °C -0.5 °C 1012.4 hPa East 6.4 km/h 8 km/h 83% 0 mm 46 W/m2
09:56 2.1 °C -0.5 °C 1012.4 hPa East 6.4 km/h 8 km/h 83% 0 mm 40 W/m2
10:02 2.1 °C -0.6 °C 1012.4 hPa ENE 6.4 km/h 6.4 km/h 83% 0 mm 47 W/m2
10:08 2.1 °C -0.6 °C 1012.1 hPa ENE 6.4 km/h 14.5 km/h 83% 0 mm 49 W/m2
10:14 2.1 °C -0.6 °C 1012.1 hPa East 6.4 km/h 11.3 km/h 83% 0 mm 49 W/m2
10:20 2.1 °C -0.5 °C 1011.7 hPa East 8 km/h 9.7 km/h 83% 0 mm 47 W/m2
10:26 2.2 °C -0.4 °C 1011.7 hPa East 6.4 km/h 9.7 km/h 83% 0 mm 54 W/m2
10:32 2.2 °C -0.4 °C 1011.4 hPa ENE 6.4 km/h 8 km/h 83% 0 mm 53 W/m2
10:38 2.2 °C -0.4 °C 1011.4 hPa ENE 4.8 km/h 8 km/h 83% 0 mm 51 W/m2
10:46 2.2 °C -0.4 °C 1011.4 hPa ENE 6.4 km/h 6.4 km/h 83% 0 mm 49 W/m2
10:52 2.2 °C -0.4 °C 1011.1 hPa ENE 4.8 km/h 6.4 km/h 83% 0 mm 44 W/m2
10:58 2.2 °C -0.4 °C 1010.7 hPa ENE 4.8 km/h 8 km/h 83% 0 mm 49 W/m2
11:06 2.2 °C -0.4 °C 1010.7 hPa East 6.4 km/h 9.7 km/h 83% 0 mm 70 W/m2
11:12 2.3 °C -0.3 °C 1010.4 hPa ENE 8 km/h 8 km/h 83% 0 mm 93 W/m2
11:18 2.3 °C -0.3 °C 1010 hPa ENE 8 km/h 16.1 km/h 83% 0 mm 107 W/m2
11:24 2.3 °C -0.3 °C 1010 hPa East 9.7 km/h 12.9 km/h 83% 0 mm 114 W/m2
11:30 2.4 °C -0.2 °C 1010 hPa ENE 9.7 km/h 12.9 km/h 83% 0 mm 109 W/m2
11:36 2.3 °C -0.3 °C 1009.7 hPa ESE 9.7 km/h 14.5 km/h 83% 0 mm 102 W/m2
11:42 2.3 °C -0.2 °C 1009.7 hPa East 11.3 km/h 11.3 km/h 84% 0 mm 116 W/m2
11:48 2.2 °C -0.1 °C 1009.4 hPa ESE 9.7 km/h 11.3 km/h 85% 0 mm 123 W/m2
11:53 2.2 °C -0.1 °C 1009 hPa East 8 km/h 8 km/h 85% 0 mm 132 W/m2
12:00 2.2 °C -0.1 °C 1009 hPa ENE 8 km/h 8 km/h 85% 0 mm 105 W/m2
12:06 2.3 °C 0 °C 1008.7 hPa ESE 8 km/h 11.3 km/h 85% 0 mm 111 W/m2
12:12 2.3 °C -0.2 °C 1008.7 hPa ESE 9.7 km/h 11.3 km/h 84% 0 mm 90 W/m2
12:18 2.3 °C 0 °C 1008.7 hPa East 9.7 km/h 11.3 km/h 85% 0 mm 69 W/m2
12:24 2.3 °C 0 °C 1008.7 hPa NNE 8 km/h 11.3 km/h 85% 0 mm 67 W/m2
12:30 2.2 °C -0.1 °C 1008.4 hPa ESE 8 km/h 8 km/h 85% 0 mm 53 W/m2
12:36 2.1 °C 0.2 °C 1008 hPa ESE 8 km/h 8 km/h 87% 0 mm 56 W/m2
12:42 2 °C 0.1 °C 1008 hPa SE 8 km/h 9.7 km/h 87% 0 mm 60 W/m2
12:48 1.9 °C 0.2 °C 1007.7 hPa ENE 8 km/h 9.7 km/h 88% 0 mm 65 W/m2
12:54 2 °C 0.2 °C 1007.7 hPa East 6.4 km/h 6.4 km/h 88% 0 mm 53 W/m2
13:00 2 °C 0.2 °C 1007.7 hPa ESE 6.4 km/h 6.4 km/h 88% 0 mm 42 W/m2
13:06 1.9 °C 0.3 °C 1007.7 hPa SE 8 km/h 8 km/h 89% 3.81 mm 46 W/m2
13:12 1.9 °C 0.3 °C 1007.3 hPa East 8 km/h 8 km/h 89% 2.54 mm 42 W/m2
13:18 1.9 °C 0.3 °C 1007 hPa ENE 8 km/h 8 km/h 89% 1.27 mm 37 W/m2
13:26 1.8 °C 0.4 °C 1007 hPa ESE 8 km/h 8 km/h 90% 3.05 mm 39 W/m2
13:32 1.8 °C 0.4 °C 1007 hPa NE 4.8 km/h 11.3 km/h 90% 4.83 mm 46 W/m2
13:38 1.9 °C 0.4 °C 1006.7 hPa ESE 6.4 km/h 11.3 km/h 90% 1.52 mm 42 W/m2
13:43 1.9 °C 0.5 °C 1006.7 hPa NE 6.4 km/h 12.9 km/h 90% 1.27 mm 35 W/m2
13:50 1.9 °C 0.5 °C 1006.7 hPa NE 6.4 km/h 6.4 km/h 90% 2.03 mm 33 W/m2
13:56 1.9 °C 0.5 °C 1006.3 hPa ENE 4.8 km/h 6.4 km/h 90% 3.05 mm 37 W/m2
14:02 1.9 °C 0.5 °C 1006 hPa ENE 4.8 km/h 6.4 km/h 90% 1.52 mm 37 W/m2
14:08 2 °C 0.7 °C 1006 hPa NE 4.8 km/h 6.4 km/h 91% 1.02 mm 37 W/m2
14:14 2 °C 0.7 °C 1006 hPa East 6.4 km/h 11.3 km/h 91% 1.02 mm 33 W/m2
14:20 2 °C 0.7 °C 1006 hPa NE 6.4 km/h 6.4 km/h 91% 2.54 mm 32 W/m2
14:26 2 °C 0.7 °C 1005.6 hPa East 6.4 km/h 8 km/h 91% 1.78 mm 30 W/m2
14:32 2.1 °C 0.7 °C 1005.6 hPa ENE 8 km/h 8 km/h 91% 2.03 mm 28 W/m2
14:38 2 °C 0.7 °C 1005.3 hPa ENE 6.4 km/h 9.7 km/h 91% 2.03 mm 25 W/m2
14:44 2 °C 0.7 °C 1005.3 hPa East 4.8 km/h 9.7 km/h 91% 3.56 mm 21 W/m2
14:49 1.9 °C 0.6 °C 1005.3 hPa East 4.8 km/h 4.8 km/h 91% 3.3 mm 21 W/m2
14:56 2 °C 0.7 °C 1005.3 hPa ENE 4.8 km/h 6.4 km/h 91% 3.3 mm 18 W/m2
15:02 2 °C 0.7 °C 1005.3 hPa East 6.4 km/h 8 km/h 91% 6.1 mm 18 W/m2
15:08 1.9 °C 0.8 °C 1005 hPa ENE 4.8 km/h 12.9 km/h 92% 2.79 mm 16 W/m2
15:14 2 °C 0.8 °C 1005 hPa East 4.8 km/h 4.8 km/h 92% 4.06 mm 16 W/m2
15:20 2 °C 0.8 °C 1005 hPa NE 4.8 km/h 6.4 km/h 92% 4.06 mm 16 W/m2
15:26 2 °C 0.8 °C 1005 hPa East 4.8 km/h 6.4 km/h 92% 5.33 mm 14 W/m2
15:32 2 °C 0.8 °C 1005 hPa ENE 4.8 km/h 4.8 km/h 92% 4.83 mm 12 W/m2
15:38 1.9 °C 0.8 °C 1005 hPa ENE 4.8 km/h 11.3 km/h 92% 6.1 mm 12 W/m2
15:44 2 °C 0.8 °C 1004.6 hPa East 4.8 km/h 4.8 km/h 92% 3.56 mm 11 W/m2
15:50 1.9 °C 0.8 °C 1004.6 hPa ENE 4.8 km/h 8 km/h 92% 3.3 mm 9 W/m2
15:56 1.9 °C 0.8 °C 1004.6 hPa ENE 4.8 km/h 8 km/h 92% 3.56 mm 7 W/m2
16:02 1.9 °C 0.8 °C 1004.3 hPa East 4.8 km/h 9.7 km/h 92% 4.06 mm 5 W/m2
16:08 1.9 °C 0.7 °C 1004.3 hPa ENE 6.4 km/h 9.7 km/h 92% 3.3 mm 5 W/m2
16:14 1.9 °C 0.7 °C 1003.9 hPa ENE 6.4 km/h 6.4 km/h 92% 3.56 mm 0 W/m2
16:20 1.9 °C 0.7 °C 1003.9 hPa NE 4.8 km/h 8 km/h 92% 4.32 mm 0 W/m2
16:26 1.9 °C 0.7 °C 1003.9 hPa ENE 4.8 km/h 11.3 km/h 92% 3.56 mm 0 W/m2
16:32 1.9 °C 0.7 °C 1003.6 hPa ENE 6.4 km/h 11.3 km/h 92% 3.05 mm 0 W/m2
16:38 1.9 °C 0.9 °C 1003.3 hPa East 6.4 km/h 11.3 km/h 93% 3.3 mm 0 W/m2
16:44 1.9 °C 0.9 °C 1003.3 hPa ENE 4.8 km/h 8 km/h 93% 2.03 mm 0 W/m2
16:49 1.9 °C 0.9 °C 1003.3 hPa East 6.4 km/h 9.7 km/h 93% 2.03 mm 0 W/m2
16:56 1.9 °C 0.9 °C 1002.9 hPa East 6.4 km/h 9.7 km/h 93% 2.03 mm 0 W/m2
17:02 1.9 °C 0.9 °C 1002.9 hPa ENE 6.4 km/h 8 km/h 93% 1.27 mm 0 W/m2
17:08 1.9 °C 0.9 °C 1002.6 hPa East 6.4 km/h 8 km/h 93% 1.27 mm 0 W/m2
17:14 1.8 °C 0.8 °C 1002.6 hPa East 4.8 km/h 9.7 km/h 93% 1.27 mm 0 W/m2
17:20 1.8 °C 0.8 °C 1002.6 hPa East 4.8 km/h 8 km/h 93% 1.02 mm 0 W/m2
17:26 1.8 °C 0.8 °C 1002.3 hPa ENE 4.8 km/h 8 km/h 93% 1.02 mm 0 W/m2
17:32 1.8 °C 0.8 °C 1002.3 hPa ENE 4.8 km/h 16.1 km/h 93% 1.02 mm 0 W/m2
17:38 1.8 °C 0.8 °C 1002.3 hPa ENE 4.8 km/h 16.1 km/h 93% 1.02 mm 0 W/m2
17:44 1.8 °C 0.8 °C 1001.9 hPa East 4.8 km/h 8 km/h 93% 1.02 mm 0 W/m2
17:50 1.8 °C 0.8 °C 1001.9 hPa ENE 6.4 km/h 6.4 km/h 93% 1.02 mm 0 W/m2
17:56 1.8 °C 0.8 °C 1001.6 hPa ENE 4.8 km/h 8 km/h 93% 1.02 mm 0 W/m2
18:02 1.8 °C 0.8 °C 1001.6 hPa ENE 6.4 km/h 11.3 km/h 93% 1.02 mm 0 W/m2
18:08 1.8 °C 0.8 °C 1001.6 hPa ENE 6.4 km/h 11.3 km/h 93% 1.02 mm 0 W/m2
18:14 1.8 °C 0.8 °C 1001.6 hPa ESE 4.8 km/h 6.4 km/h 93% 1.02 mm 0 W/m2
18:20 1.8 °C 0.8 °C 1001.6 hPa East 4.8 km/h 4.8 km/h 93% 1.27 mm 0 W/m2
18:26 1.9 °C 0.9 °C 1001.2 hPa East 6.4 km/h 11.3 km/h 93% 1.27 mm 0 W/m2
18:32 1.9 °C 0.9 °C 1001.2 hPa ENE 6.4 km/h 11.3 km/h 93% 1.02 mm 0 W/m2
18:38 1.9 °C 0.9 °C 1001.2 hPa East 4.8 km/h 11.3 km/h 93% 0 mm 0 W/m2
18:44 1.9 °C 0.9 °C 1001.2 hPa East 4.8 km/h 4.8 km/h 93% 2.54 mm 0 W/m2
18:50 1.9 °C 0.9 °C 1001.2 hPa ENE 6.4 km/h 6.4 km/h 93% 2.03 mm 0 W/m2
18:56 1.9 °C 0.9 °C 1001.2 hPa ESE 6.4 km/h 12.9 km/h 93% 1.78 mm 0 W/m2
19:02 1.9 °C 0.9 °C 1001.2 hPa ENE 4.8 km/h 4.8 km/h 93% 1.78 mm 0 W/m2
19:08 1.9 °C 0.9 °C 1000.9 hPa ENE 4.8 km/h 6.4 km/h 93% 1.27 mm 0 W/m2
19:14 1.9 °C 0.9 °C 1000.9 hPa ESE 4.8 km/h 8 km/h 93% 1.02 mm 0 W/m2
19:20 1.9 °C 0.9 °C 1000.6 hPa ENE 6.4 km/h 6.4 km/h 93% 2.03 mm 0 W/m2
19:26 1.9 °C 0.8 °C 1000.6 hPa NE 6.4 km/h 6.4 km/h 92% 2.03 mm 0 W/m2
19:32 1.9 °C 0.9 °C 1000.6 hPa East 4.8 km/h 8 km/h 93% 1.27 mm 0 W/m2
19:38 1.9 °C 0.9 °C 1000.2 hPa East 4.8 km/h 8 km/h 93% 2.79 mm 0 W/m2
19:44 1.9 °C 0.9 °C 1000.2 hPa ENE 3.2 km/h 4.8 km/h 93% 2.03 mm 0 W/m2
19:50 1.9 °C 0.9 °C 1000.2 hPa ENE 3.2 km/h 3.2 km/h 93% 1.52 mm 0 W/m2
19:55 1.9 °C 0.9 °C 1000.2 hPa ENE 4.8 km/h 8 km/h 93% 1.52 mm 0 W/m2
20:02 1.9 °C 0.9 °C 999.9 hPa ENE 3.2 km/h 3.2 km/h 93% 1.27 mm 0 W/m2
20:08 1.9 °C 0.9 °C 999.5 hPa NE 1.6 km/h 6.4 km/h 93% 1.52 mm 0 W/m2
20:14 1.9 °C 0.9 °C 999.5 hPa ENE 3.2 km/h 6.4 km/h 93% 1.52 mm 0 W/m2
20:20 1.9 °C 0.9 °C 999.5 hPa ENE 4.8 km/h 4.8 km/h 93% 1.52 mm 0 W/m2
20:26 1.9 °C 0.9 °C 999.2 hPa ENE 3.2 km/h 11.3 km/h 93% 1.52 mm 0 W/m2
20:32 1.9 °C 0.9 °C 999.2 hPa East 4.8 km/h 8 km/h 93% 1.27 mm 0 W/m2
20:38 1.9 °C 0.9 °C 999.2 hPa NE 4.8 km/h 8 km/h 93% 1.78 mm 0 W/m2
20:43 1.9 °C 0.9 °C 998.9 hPa ENE 3.2 km/h 3.2 km/h 93% 1.78 mm 0 W/m2
20:50 1.9 °C 0.9 °C 998.9 hPa East 3.2 km/h 4.8 km/h 93% 1.27 mm 0 W/m2
20:56 1.9 °C 0.9 °C 998.9 hPa ENE 3.2 km/h 8 km/h 93% 1.27 mm 0 W/m2
21:02 1.9 °C 0.9 °C 998.5 hPa ENE 3.2 km/h 4.8 km/h 93% 1.27 mm 0 W/m2
21:08 1.9 °C 0.9 °C 998.5 hPa East 1.6 km/h 6.4 km/h 93% 1.27 mm 0 W/m2
21:14 1.9 °C 0.9 °C 998.5 hPa ENE 1.6 km/h 1.6 km/h 93% 1.27 mm 0 W/m2
21:20 1.9 °C 0.9 °C 998.5 hPa ENE 3.2 km/h 4.8 km/h 93% 0 mm 0 W/m2
21:26 1.9 °C 0.9 °C 998.2 hPa East 3.2 km/h 4.8 km/h 93% 0 mm 0 W/m2
21:32 1.9 °C 0.9 °C 998.2 hPa East 3.2 km/h 8 km/h 93% 0 mm 0 W/m2
21:38 1.9 °C 0.9 °C 998.2 hPa East 3.2 km/h 8 km/h 93% 0 mm 0 W/m2
21:44 1.9 °C 0.9 °C 998.2 hPa ENE 3.2 km/h 3.2 km/h 93% 0 mm 0 W/m2
21:49 1.9 °C 0.9 °C 997.9 hPa East 3.2 km/h 8 km/h 93% 0 mm 0 W/m2
21:56 1.9 °C 0.9 °C 997.5 hPa East 3.2 km/h 8 km/h 93% 1.52 mm 0 W/m2
22:02 1.9 °C 0.9 °C 997.5 hPa East 1.6 km/h 3.2 km/h 93% 1.27 mm 0 W/m2
22:08 1.9 °C 0.9 °C 997.5 hPa East 1.6 km/h 3.2 km/h 93% 0 mm 0 W/m2
22:13 1.9 °C 0.9 °C 997.5 hPa ENE 1.6 km/h 3.2 km/h 93% 0 mm 0 W/m2
22:20 1.9 °C 0.9 °C 997.5 hPa ESE 1.6 km/h 1.6 km/h 93% 0 mm 0 W/m2
22:26 1.9 °C 0.9 °C 997.2 hPa East 1.6 km/h 1.6 km/h 93% 0 mm 0 W/m2
22:32 1.9 °C 0.9 °C 997.2 hPa SE 1.6 km/h 6.4 km/h 93% 0 mm 0 W/m2
22:38 1.9 °C 0.9 °C 997.5 hPa NE 1.6 km/h 6.4 km/h 93% 0 mm 0 W/m2
22:43 1.9 °C 0.9 °C 997.5 hPa SE 1.6 km/h 1.6 km/h 93% 0 mm 0 W/m2
22:50 1.9 °C 0.9 °C 997.2 hPa SE 1.6 km/h 1.6 km/h 93% 0 mm 0 W/m2
22:56 1.9 °C 0.9 °C 996.8 hPa SE 1.6 km/h 1.6 km/h 93% 0 mm 0 W/m2
23:02 1.8 °C 0.8 °C 996.8 hPa Calm   1.6 km/h 93% 0 mm 0 W/m2
23:08 1.9 °C 0.9 °C 996.8 hPa Calm   1.6 km/h 93% 0 mm 0 W/m2
23:14 1.8 °C 0.8 °C 996.8 hPa Calm     93% 0 mm 0 W/m2
23:20 1.8 °C 0.8 °C 996.8 hPa Calm     93% 0 mm 0 W/m2
23:26 1.8 °C 0.8 °C 996.8 hPa Calm   1.6 km/h 93% 0 mm 0 W/m2
23:32 1.8 °C 0.8 °C 996.5 hPa Calm     93% 0 mm 0 W/m2
23:38 1.7 °C 0.7 °C 996.5 hPa Calm   4.8 km/h 93% 0 mm 0 W/m2
23:44 1.8 °C 0.9 °C 996.5 hPa Calm     94% 0 mm 0 W/m2
23:52 1.7 °C 0.8 °C 996.2 hPa Calm     94% 0 mm 0 W/m2
23:58 1.7 °C 0.7 °C 995.8 hPa NE 1.6 km/h 3.2 km/h 93% 0 mm 0 W/m2
Country Meadow, Clay, NY, USA
Compliments of Weather Underground - 2 mb